Regional Weather Roundup
Issued by NWS

Home | Current Version | Previous Version | Graphics & Text | Print | Product List | Glossary On
Versions: 1 2 3 4 5 6 7 8 9 10 11 12 13 14 15 16 17 18 19 20 21 22 23 24 25 26 27
000
ASUS45 KTFX 241910
RWRMT
MONTANA REGIONAL WEATHER ROUNDUP
NATIONAL WEATHER SERVICE GREAT FALLS MT
100 PM MDT SUN JUL 24 2016

NOTE: "FAIR" INDICATES FEW OR NO CLOUDS BELOW 12000 FEET WITH NO
SIGNIFICANT WEATHER AND/OR OBSTRUCTIONS TO VISIBILITY.

MTZ001>007-043-242000-
WEST OF THE DIVIDE

CITY           SKY/WX    TMP DP  RH WIND       PRES   REMARKS
KALISPELL      SUNNY     74  47  38 SE8       30.11F
MISSOULA       SUNNY     77  44  30 N3        30.13F
BUTTE          SUNNY     76  30  18 N7        30.20F
MULLAN PASS    SUNNY     64  44  48 CALM      30.26S
ANACONDA         N/A     73  39  29 N6        30.17F
DEER LODGE       N/A     73  36  25 E3        30.20F
EUREKA           N/A     77  45  31 SE6       30.10F
HAMILTON         N/A     73  45  35 CALM      30.13F
LIBBY            N/A     77  46  33 W7        30.10F
PLAINS           N/A     80  45  29 CALM      30.10F
RONAN            N/A     74  45  35 SW3       30.17F
$$

MTZ008-052>055-242000-
SOUTHWEST MONTANA

CITY           SKY/WX    TMP DP  RH WIND       PRES   REMARKS
BOZEMAN        SUNNY     77  39  25 VRB3      30.16F
DILLON         SUNNY     75  40  28 SW3       30.18F
W YELLOWSTONE  SUNNY     73  27  17 W6        30.28S
ENNIS          SUNNY     77  36  22 SW7       30.23F
THREE FORKS      N/A     77   0   5 SE5       30.13F
TWIN BRIDGES     N/A     76  39  26 S8        30.15F
$$

MTZ009-010-012-014-046-048-049-054-242000-
EAST SLOPES AND CENTRAL MONTANA

CITY           SKY/WX    TMP DP  RH WIND       PRES   REMARKS
CUT BANK       SUNNY     76  39  26 CALM      30.08F
GREAT FALLS    SUNNY     78  34  20 MISG      30.09F
MALMSTROM AFB  SUNNY     76  37  24 W6G14     30.09F
HELENA         SUNNY     80  36  20 VRB3      30.10F
CHOTEAU          N/A     77  34  20 VRB3      30.11F
CONRAD           N/A     79  47  32 NE2       30.10F
$$

MTZ011-013-016-021-045-047-050-051-242000-
NORTH CENTRAL MONTANA

CITY           SKY/WX    TMP DP  RH WIND       PRES   REMARKS
HAVRE          SUNNY     82  44  26 SW10G18   30.03F
LEWISTOWN      SUNNY     77  42  28 CALM      30.13F
N BAR RANCH      N/A     79  39  24 NE8G15    30.14F
CHINOOK          N/A     81  45  28 SW9G16    30.03S
$$

MTZ017>020-022>027-061-062-242000-
NORTHEAST MONTANA

CITY           SKY/WX    TMP DP  RH WIND       PRES   REMARKS
GLASGOW        MOSUNNY   84  53  34 VRB3      30.00F
JORDAN           N/A     87  45  23 SW8G20    30.03F
SIDNEY         SUNNY     82  52  35 NE5       30.04F
WOLF POINT     SUNNY     85  49  28 SW8       30.02F
PLENTYWOOD       N/A     79  52  38 W12G18    30.03F
POPLAR           N/A     82  52  34 S7        30.03F
SCOBEY           N/A     95  68  41 S2        30.03F HX  99
$$

MTZ028>42-056>058-242000-
SOUTHCENTRAL AND SOUTHEAST MONTANA

CITY           SKY/WX    TMP DP  RH WIND       PRES   REMARKS
BAKER          SUNNY     83  45  26 CALM      30.11F
BILLINGS       MOSUNNY   82  41  23 VRB6      30.10F
LIVINGSTON     SUNNY     83  37  19 W8        30.13F
MILES CITY     SUNNY     86  42  21 W5        30.05F
EKALAKA          N/A     85  44  23 E2        30.09F
FORSYTH          N/A     88  45  22 S6        30.04F
LAUREL           N/A     82  43  25 E3        30.08F
ROUNDUP          N/A     82  38  20 SW7       30.00F
$$

REGIONAL REPORTS...DAKOTAS

CITY           SKY/WX    TMP DP  RH WIND       PRES   REMARKS
WILLISTON      SUNNY     83  49  30 NW13      30.04F
MINOT          MOSUNNY   82  55  39 W22G29    29.99F
DICKINSON      SUNNY     79  49  34 W7        30.07F
CROSBY           N/A     73  57  56 NW13G18   30.05S
WATFORD CITY     N/A    N/A N/A N/A MISG        N/A
BISMARCK       SUNNY     82  55  39 NW15G25   30.04S
GRAND FORKS    PTSUNNY   78  62  57 NW20G26   29.87F
FARGO          SUNNY     81  60  48 NW16G26   29.90F
BUFFALO SD       N/A     85  43  22 W7        30.05F
RAPID CITY     PTSUNNY   83  49  30 SE9       30.13F
$$

REGIONAL REPORTS...WYOMING/IDAHO/WASHINGTON

CITY           SKY/WX    TMP DP  RH WIND       PRES   REMARKS
GILLETTE       SUNNY     83  43  24 S17G26    30.16F
SHERIDAN       SUNNY     88  39  17 MISG      30.09F
BUFFALO WY     MOSUNNY   83  39  21 SE20G28   30.17F
CODY           SUNNY     79  39  24 E8        30.17F
YELLOWSTONE LA   N/A     68  38  33 E7        30.37F
IDAHO FALLS    SUNNY     77  34  21 S7        30.18F
SALMON         SUNNY     75  43  31 NW6       30.10F
BOISE          SUNNY     82  42  24 VRB5      30.08F
SPOKANE        MOSUNNY   78  42  27 CALM      30.11F
$$

REGIONAL REPORTS...ALBERTA

CITY           SKY/WX    TMP DP  RH WIND       PRES   REMARKS
EDMONTON       MOSUNNY   77  50  38 SW14G22   29.89F
CALGARY        MOSUNNY   73  45  35 S13       30.02F
LETHBRIDGE     MOSUNNY   75  48  38 S5        30.03F
MEDICINE HAT   MOSUNNY   75  59  57 W5        30.00F
WATERTON GATE    N/A     73  46  38 SW15G26     N/A
MILK RIVER       N/A     79  43  27 W7          N/A
$$

REGIONAL REPORTS...SASKATCHEWAN

CITY           SKY/WX    TMP DP  RH WIND       PRES   REMARKS
SWIFT CURRENT  SUNNY     73  57  56 VRB7      30.02F
REGINA         MOSUNNY   73  57  56 W13G18    30.00S
SASKATOON      MOSUNNY   75  54  46 W12       29.96F
CYPRESS HILLS    N/A     72  50  46 W5          N/A
VAL MARIE        N/A     81  48  32 W6          N/A
ROCKGLEN         N/A     75  48  38 W12G20      N/A
$$




USA.gov is the U.S. government's official web portal to all federal, state and local government web resources and services.